Location: Newark
(50.1395°N, 5.5234°W)
Time: 23:25:57
(UTC+00:00)

ISS - Pass Details

Date: 06 March 2021
Orbit: 418 x 422 km, 51.6° (Epoch: 12 April)

Event Time Altitude Azimuth Distance (km) Brightness Sun altitude
Exits shadow 06:14:08 - 283° (WNW) 1,556 -1.5 -7.3°
Reaches altitude 10° 06:14:16 10° 283° (WNW) 1,501 -1.6 -7.3°
Maximum altitude 06:17:34 54° 205° (SSW) 513 -3.5 -6.8°
Drops below altitude 10° 06:20:52 10° 127° (SE) 1,496 0.0 -6.3°
Sets 06:22:58 0° 123° (ESE) 2,358 1.2 -5.9°
